Starlink 2114

operational
NORAD ID: 47393 Int'l Des: 2021-005 Owner: SPXS Country: US Constellation: starlink
LEOCIRCULAR

About Starlink 2114

Description loading...

Live Position

Loading 3D Globe...

Upcoming Passes

Altitude History

Altitude vs Time

uPlot chart will show altitude changes over time

Two-Line Element Set

1 47393U 21005AW 26063.00001157 .01172226 00000-0 11812-1 0 9990
2 47393 53.0465 11.7707 0001709 95.0330 138.4727 15.62118469 5876
Epoch: Mar 4, 2026 • Age: 16 hours

Current Status

Altitude 395.1 km
Velocity 7.67 km/s
Sub-Earth Point -48.14°S, 84.37°W
Launch Date Jan 20, 2021
Age 5.1 years
Type internet

Technical Details

Classification Payload
Mass 260.00 kg
Dry Mass 248.00 kg
Total Mass 260.00 kg
Length 0.20 m
Diameter 2.80 m
Span 9.00 m
Shape Box + pan
Manufacturer SPXS
Bus Type Starlink
Phase Status In Orbit
Owner/State SPXS/US

Large Constellations

Loading constellations...